Regional Weather Roundup
Issued by NWS Jackson, KY

Home | Current Version | Previous Version | Text Only | Print | Product List | Glossary Off
Versions: 1 2 3 4 5 6 7 8 9 10 11 12 13 14 15 16 17 18 19 20 21 22 23 24 25 26 27 28 29 30 31 32 33 34 35 36 37 38 39 40 41 42 43 44 45 46 47 48 49 50

000
ASUS43 KJKL 302310
RWRJKL

EAST KENTUCKY HOURLY WEATHER ROUNDUP
NATIONAL WEATHER SERVICE JACKSON KY
700 PM EDT SUN AUG 30 2015

NOTE: "FAIR" INDICATES FEW OR NO CLOUDS BELOW 12,000 FEET WITH
NO SIGNIFICANT WEATHER AND/OR OBSTRUCTIONS TO VISIBILITY.

* THESE REPORTS ARE NOT UNDER NWS QUALITY CONTROL AND MAY NOT
  REPORT WEATHER SUCH AS PRECIPITATION AND FOG.

KYZ079-080-083-085-087-088-110-112-115-119-120-310000
...EASTERN KENTUCKY...

CITY           SKY/WX    TMP DP  RH WIND       PRES   REMARKS
JACKSON        PTSUNNY   79  64  60 CALM      30.12S
LONDON         PTSUNNY   79  60  52 CALM      30.11S
SOMERSET*      PTSUNNY   77  63  61 CALM      30.10S
MONTICELLO*    CLOUDY    78  68  71 CALM      30.12S
MIDDLESBORO*   CLOUDY    75  68  77 CALM      30.10F
HARLAN APT*      N/A     75  66  73 MISG      30.12
HAZARD APT*    CLEAR     77  66  69 S3        30.11F
BLACK MTN*       N/A     66  63  88 E2          N/A
PIKEVILLE APT* SUNNY     75  64  69 SE3       30.12F
BIG SANDY*     PTCLDY    78  67  68 CALM      30.11F
MOREHEAD APT*  MOCLDY    77  64  65 S5        30.11S
$$

KYZ035-036-041-042-044-050-067-078-099-310000
...CENTRAL KENTUCKY...

CITY           SKY/WX    TMP DP  RH WIND       PRES   REMARKS
MT STERLING*   PTSUNNY   79  64  61 SW5       30.11R
FLEMING/MASON* SUNNY     79  68  69 SW5       30.10R
DANVILLE*      PTSUNNY   79  63  57 CALM      30.10S
RICHMOND*      PTSUNNY   81  61  50 SW5       30.09S
LEXINGTON      CLOUDY    79  67  66 SW7       30.09R
FRANKFORT      PTSUNNY   74  66  76 SW10      30.07R
$$

KYZ091>093-OHZ055-061-077-WVZ005-015-034-035-042-310000
...SOUTHERN OHIO/WEST VIRGINIA...

CITY           SKY/WX    TMP DP  RH WIND       PRES   REMARKS
COVINGTON      PTSUNNY   77  67  71 CALM      30.07R
COLUMBUS       PTSUNNY   83  66  56 S8        30.03S
DAYTON         PTSUNNY   79  65  62 S13       30.06R
WILMINGTON     PTSUNNY   75  64  68 NW8       30.07R
HUNTINGTON     PTSUNNY   81  66  60 S6        30.08S
CHARLESTON     PTSUNNY   81  67  62 SW6       30.10S
PINEVILLE*     MOSUNNY   74  71  91 MISG      30.20S
BECKLEY        CLOUDY    74  62  66 CALM      30.19R
BLUEFIELD      PTSUNNY   76  61  59 S3        30.21S
$$

VAZ002-007-008-TNZ017-027-036-066-071-310000
...SOUTHWEST VIRGINIA/EAST TENNESSEE...

CITY           SKY/WX    TMP DP  RH WIND       PRES   REMARKS
WISE*          CLOUDY    72  63  73 NE3       30.21S
JONESVILLE*    CLOUDY    77  59  53 CALM      30.13F
ABINGDON*      CLOUDY    77  57  50 S6        30.17R
BRISTOL        CLOUDY    76  61  59 CALM      30.13S
KNOXVILLE      CLOUDY    69  65  86 SE3       30.06F
OAK RIDGE      CLOUDY    78  66  66 E3        30.09F
CROSSVILLE     CLOUDY    74  65  73 CALM      30.12F
NASHVILLE      PTSUNNY   79  63  57 SW3       30.08S
$$

...KEY TO REMARKS...
VSB - VISIBILITY IN MILES
WCI - WIND CHILL INDEX
HX  - HEAT INDEX

$$



USA.gov is the U.S. government's official web portal to all federal, state and local government web resources and services.